Location: Arlington
(40.6323°N, 74.1651°W)
Time: 22:04:59
(UTC+00:00)

YAOGAN 6 - Pass Details

Date: 22 November 2019
Orbit: 467 x 504 km, 97.0° (Epoch: 12 December)

Event Time Altitude Azimuth Distance (km) Brightness Sun altitude
Rises 23:19:40 0° 174° (S) 2,492 6.2 -19.8°
Reaches altitude 10° 23:21:43 10° 178° (S) 1,619 5.3 -20.2°
Maximum altitude 23:25:09 62° 260° (W) 529 2.9 -20.8°
Drops below altitude 10° 23:28:37 10° 342° (NNW) 1,632 5.3 -21.5°
Sets 23:30:42 0° 346° (NNW) 2,515 6.3 -21.9°
